IRIDIUM 33 DEB, 34985

Orbit data source: Space-Track

IRIDIUM 33 DEB, 34985 is space debris in LEO originally from a launch on Sun, 14 Sep 1997 UTC launched from the Tyuratam Missile And Space Complex (TTMTR). The debris from Iridium 33, an American commercial communications satellite, has been tracked extensively since its accidental collision with the defunct Russian satellite Cosmos 2251 in 2009. This event, occurring at high speed in low Earth orbit (LEO), generated thousands of pieces of space debris, significantly increasing the risk of further collisions. The Iridium 33 debris cloud has impacted space traffic management and orbital debris mitigation strategies, making it a subject of ongoing study in space situational awareness.

Loading next visibility...
Identifier
34985, 1997-051NR
Orbit
LEO
Country
Flag of USUS
Related business
Manufacturer
Unknown
Mission
Spacecraft
Bus & Motor
Unknown
Mass
Unknown
Launch date (UTC)
1997-09-14 (28 years ago)
Launch vehicle
Unknown
Launch site
Tyuratam Missile And Space Complex (TTMTR)
Object type
Payload
Rocket body
Debris
Shape & HBR
Unknown shape, 0.1 m
Radar Cross Section
Small (<0.1 m²)

Expand to show TLE details & history
Last TLE update: 22 hours ago

TLE from 22 hours ago
0 IRIDIUM 33 DEB
1 34985U 97051NR  25308.11605693  .00002654  00000-0  80603-3 0  9997
2 34985  86.3683  73.3501 0020772 356.7452 183.2401 14.41733585866183
Epoch: 2025-11-04T02:47Z
TLE epoch observation values (Epoch: 2025-11-04T02:47:07.318Z)
Latitude
-0.0921°
Longitude
167.96772°
Altitude
770.642 km
Speed
7.461 km/s
True Right ascension
16h 53m 25s
True Declination
0° 05' 30"
Sunlit
Object was in daylight at epoch
Visualization orbit readout
Latitude
Unknown
Longitude
Unknown
Altitude
Unknown
Speed
Unknown
Apparent Right ascension
Unknown
Apparent Declination
Unknown
Sunlit
N/A
Visualization observer readout
Local Sidereal Time
20:39:00
Azimuth
Unknown
Elevation
Unknown
Doppler factor
Unknown
Orbital elements
Apogee altitude
764.537 km
Perigee altitude
734.925 km
Semi-major axis
7,127.868 km
Eccentricity
0.00208
Inclination
86.3683°
RAAN
73.3501°
Arg. of periapsis
356.7452°
True anomaly
183.22668°
Mean anomaly
183.2401°
Eccentric anomaly
183.23339°
Mean motion
3.60665 °/min
Orbital period
99.82 mins
BSTAR
0.00080603
Loading maneuver chart data...
Computing Atmospheric mass density...

Documentation

Showing up to 5 results
|